This is the latest recevied weather packets stored in our database for station/object SP9POL-3. If no packets are shown the sender has not sent any weather packets the latest 10 day(s).
| Time | Temp. | Humidity | Pressure | Rain* | Wind** | Luminosity | Snow |
|---|---|---|---|---|---|---|---|
| 1777980611 | 27.78° C | 16% | 1007 hPa | - | - | - | - |
| 1777978931 | 24.44° C | 22% | 1007.3 hPa | - | - | - | - |
| 1777977250 | 22.22° C | 27% | 1007.7 hPa | - | - | - | - |
| 1777975570 | 21.11° C | 31% | 1008.1 hPa | - | - | - | - |
| 1777973890 | 20° C | 35% | 1008.3 hPa | - | - | - | - |
| 1777972210 | 19.44° C | 39% | 1008.6 hPa | - | - | - | - |
| 1777970530 | 17.78° C | 46% | 1008.7 hPa | - | - | - | - |
| 1777968850 | 16.67° C | 47% | 1008.9 hPa | - | - | - | - |
| 1777967170 | 16.11° C | 49% | 1009.1 hPa | - | - | - | - |
| 1777965490 | 15° C | 51% | 1009.3 hPa | - | - | - | - |
| 1777963809 | 14.44° C | 55% | 1009.4 hPa | - | - | - | - |
| 1777962129 | 13.89° C | 59% | 1009.6 hPa | - | - | - | - |
| 1777960449 | 13.33° C | 62% | 1009.6 hPa | - | - | - | - |
| 1777958769 | 13.33° C | 62% | 1009.8 hPa | - | - | - | - |
| 1777957089 | 13.33° C | 62% | 1009.7 hPa | - | - | - | - |
| 1777955409 | 12.78° C | 63% | 1009.7 hPa | - | - | - | - |
| 1777953729 | 12.22° C | 64% | 1009.5 hPa | - | - | - | - |
| 1777952049 | 11.67° C | 65% | 1009.7 hPa | - | - | - | - |
| 1777950369 | 11.67° C | 62% | 1009.6 hPa | - | - | - | - |
| 1777948688 | 11.67° C | 61% | 1009.8 hPa | - | - | - | - |
| 1777947007 | 12.22° C | 58% | 1009.9 hPa | - | - | - | - |
| 1777945327 | 12.78° C | 57% | 1010 hPa | - | - | - | - |
| 1777943647 | 12.78° C | 55% | 1010 hPa | - | - | - | - |
| 1777941967 | 13.33° C | 53% | 1010 hPa | - | - | - | - |
| 1777940287 | 13.89° C | 53% | 1010 hPa | - | - | - | - |
* Rain since midnight (hover to see other rain measurements)
** Current wind speed in m/s (hover to see current wind gust speed)